Temp
18 18 18 18 19 19 19 19 19 19 20 20 20 20 20 20 20 20 20 21 20 20 20 20 19 19 19 19 18 19 19 18 18 18 18 18 18 18 18 18 19 18 18
18 18 18 19 19 19 20 20 20 20 20 20 20 21 21 20 21 21 21 21 20 20 20 20 19 19 19 19 18 18 19 18 18 18 18 18 18 18 18 18 19 18 18
18 19 19 19 19 20 20 20 20 20 20 20 20 20 21 20 20 20 20 20 20 20 20 19 19 19 19 19 19 19 19 18 18 18 19 19 19 19 18 18 19 18 18
19 19 19 19 19 20 20 20 20 20 21 20 20 20 20 21 21 21 21 21 20 20 20 20 20 19 19 19 19 19 18 19 19 19 19 19 19 19 19 19 19 19 19
19 19 19 19 19 19 20 20 20 20 21 21 21 21 20 20 21 21 21 21 21 20 20 20 20 20 19 19 19 18 18 19 19 19 20 20 19 19 19 20 20 19 19
19 19 19 19 19 20 20 20 20 20 21 21 21 21 21 21 21 21 21 21 21 20 21 20 20 20 20 19 19 19 19 20 20 20 20 20 19 19 19 20 20 20 19
19 19 19 19 19 19 20 20 20 20 21 21 21 21 22 22 22 22 22 21 21 21 21 21 20 20 20 20 20 20 20 20 20 20 20 20 19 19 19 19 19 19 19
18 19 19 19 19 19 19 20 20 20 20 21 21 21 21 21 22 22 22 22 21 21 21 21 21 21 20 20 20 20 20 20 20 20 19 19 19 19 19 19 19 19 19
19 18 19 19 19 19 19 20 20 20 20 21 21 21 21 22 22 22 22 22 21 21 21 22 21 21 21 20 20 20 20 20 20 19 19 19 19 19 19 19 19 19 19
18 18 19 19 19 19 19 20 20 20 20 20 21 21 21 21 20 22 21 21 21 21 21 21 22 21 21 21 20 20 20 20 20 19 19 19 19 19 19 19 19 19 19
18 18 18 19 19 19 19 19 19 20 20 20 20 20 20 20 20 20 21 21 21 21 21 21 21 21 21 21 20 20 20 20 19 19 19 19 19 19 19 19 19 19 18
18 18 18 19 19 19 19 19 19 19 19 19 19 19 19 19 19 19 19 20 19 20 21 21 21 21 21 21 20 20 20 20 19 19 19 19 19 18 19 19 19 19 18
19 19 19 19 19 19 19 19 19 18 19 19 19 19 19 19 19 19 18 19 19 19 19 20 20 20 20 21 20 20 20 20 19 19 19 19 18 18 18 18 19 18 18
19 19 19 19 19 19 19 19 19 18 19 19 19 19 19 19 19 19 18 18 19 20 19 19 20 20 20 20 20 20 20 19 19 19 18 18 18 18 18 18 18 19 18
19 19 19 19 19 19 19 18 19 18 19 19 19 18 18 18 18 18 18 18 18 19 20 19 19 19 19 19 19 19 19 19 19 19 19 18 18 18 18 18 18 18 18
19 19 19 19 19 19 19 19 19 19 18 18 18 18 18 18 18 18 18 18 18 17 18 19 18 18 18 18 19 19 19 19 19 19 19 19 18 18 18 18 18 18 18
19 19 19 19 19 19 19 19 19 19 18 18 18 18 18 18 18 17 18 18 18 18 17 18 17 18 18 18 18 18 18 18 18 18 18 18 18 17 17 17 17 18 17
19 19 19 19 19 19 19 18 18 19 19 19 19 18 18 18 18 18 18 18 18 18 17 17 17 18 18 18 18 18 18 18 18 18 18 17 17 17 16 17 17 17 17
19 19 19 19 19 18 18 18 18 18 19 18 18 18 18 18 18 18 18 18 18 18 17 16 17 17 18 18 18 18 18 17 17 17 17 17 16 16 16 16 16 16 16
19 19 19 19 19 18 18 18 18 19 18 18 18 18 18 18 18 18 18 18 18 18 17 17 16 17 16 16 17 17 16 17 17 17 17 17 16 16 15 15 15 15 16
20 19 19 19 18 18 18 18 18 18 18 18 18 18 18 18 18 18 18 18 18 17 16 16 17 17 16 16 16 16 16 15 16 16 16 16 16 15 15 15 15 15 15
19 20 19 19 19 19 19 18 18 18 18 18 18 18 18 18 18 18 18 17 17 17 17 16 16 16 16 16 15 15 15 15 15 16 15 15 15 14 14 14 14 14 13
19 19 18 19 19 19 19 18 18 18 18 18 17 17 17 17 17 17 17 17 17 17 16 16 16 16 15 15 15 14 15 15 15 15 15 14 14 14 14 14 14 13 13
19 19 18 18 19 18 18 18 18 18 17 17 17 17 17 17 16 16 16 16 16 15 15 15 15 14 14 13 14 14 13 13 14 14 14 14 14 14 14 14 14 13 13
17 18 18 18 18 18 18 17 18 17 17 17 17 17 17 16 16 15 15 15 15 14 14 14 14 14 14 14 14 14 14 13 14 14 14 13 13 13 13 13 14 13 13
16 16 18 18 18 18 18 18 18 17 17 17 17 16 15 15 15 15 14 14 14 14 13 14 14 14 13 13 13 13 13 12 12 12 12 12 12 12 12 12 12 12 12
Height
1587 1588 1590 1591 1592 1593 1593 1594 1595 1596 1595 1595 1595 1595 1595 1594 1593 1593 1592 1592 1592 1593 1593 1593 1593 1591 1590 1589 1587 1587 1584 1583 1581 1580 1579 1578 1577 1575 1573 1572 1569 1568 1567
1588 1589 1591 1592 1593 1593 1594 1595 1596 1596 1596 1596 1595 1595 1595 1595 1594 1594 1594 1593 1594 1594 1594 1593 1592 1591 1589 1587 1586 1585 1583 1582 1581 1580 1578 1577 1575 1574 1572 1571 1569 1568 1567
1588 1590 1591 1593 1593 1594 1595 1596 1596 1596 1596 1596 1595 1595 1596 1596 1596 1595 1595 1594 1594 1594 1593 1591 1590 1589 1588 1586 1584 1582 1582 1580 1579 1579 1578 1575 1573 1572 1571 1570 1568 1567 1566
1589 1590 1592 1593 1594 1595 1595 1596 1596 1596 1596 1596 1596 1596 1596 1596 1596 1595 1595 1595 1595 1594 1592 1590 1589 1586 1584 1584 1584 1581 1580 1578 1577 1577 1576 1574 1572 1571 1569 1569 1568 1567 1565
1589 1590 1592 1593 1594 1595 1596 1596 1597 1597 1597 1597 1597 1597 1597 1597 1596 1596 1595 1595 1594 1593 1591 1589 1587 1584 1582 1581 1581 1579 1578 1577 1577 1576 1576 1573 1571 1570 1568 1568 1568 1567 1565
1589 1590 1591 1593 1594 1595 1596 1597 1597 1598 1598 1598 1598 1597 1597 1597 1595 1595 1595 1594 1593 1591 1589 1588 1586 1582 1579 1579 1579 1578 1578 1577 1577 1576 1575 1572 1570 1569 1567 1566 1566 1566 1565
1588 1589 1591 1592 1594 1595 1596 1597 1597 1598 1598 1598 1598 1596 1596 1595 1595 1594 1594 1592 1591 1590 1588 1587 1584 1582 1580 1578 1577 1578 1578 1577 1576 1576 1574 1572 1570 1568 1566 1566 1566 1565 1564
1586 1588 1590 1591 1593 1595 1595 1596 1597 1597 1598 1598 1598 1596 1596 1596 1593 1592 1592 1591 1590 1589 1587 1585 1584 1581 1580 1579 1578 1578 1577 1577 1576 1575 1573 1571 1569 1568 1566 1565 1564 1563 1563
1584 1586 1588 1590 1592 1593 1594 1595 1596 1596 1596 1597 1597 1597 1596 1595 1593 1592 1592 1591 1590 1589 1587 1585 1583 1581 1580 1579 1578 1578 1577 1576 1576 1574 1572 1570 1568 1567 1565 1564 1563 1561 1560
1583 1584 1586 1588 1590 1591 1592 1593 1594 1595 1595 1595 1595 1595 1595 1595 1595 1593 1591 1591 1590 1588 1587 1585 1583 1581 1580 1579 1578 1578 1577 1576 1575 1573 1571 1569 1567 1566 1564 1562 1561 1559 1558
1581 1583 1584 1586 1588 1589 1589 1590 1591 1592 1592 1593 1593 1593 1594 1593 1593 1592 1590 1590 1589 1588 1586 1584 1583 1581 1580 1579 1578 1576 1576 1575 1574 1572 1570 1568 1566 1565 1563 1561 1560 1558 1557
1579 1581 1582 1584 1586 1587 1588 1588 1589 1590 1591 1591 1592 1592 1592 1593 1593 1591 1590 1588 1588 1586 1585 1584 1582 1581 1580 1577 1576 1575 1575 1574 1572 1571 1569 1567 1566 1564 1562 1560 1558 1557 1555
1576 1578 1580 1582 1584 1585 1586 1586 1587 1588 1589 1589 1590 1590 1590 1590 1590 1589 1588 1587 1585 1585 1583 1582 1580 1579 1578 1577 1575 1574 1573 1572 1571 1569 1567 1565 1564 1562 1561 1559 1557 1555 1554
1574 1576 1576 1579 1581 1582 1584 1585 1585 1585 1586 1586 1587 1587 1587 1587 1587 1586 1586 1585 1584 1583 1582 1580 1578 1577 1576 1575 1574 1573 1571 1570 1568 1566 1564 1562 1561 1560 1559 1557 1555 1554 1552
1571 1573 1574 1575 1577 1579 1580 1580 1581 1583 1583 1582 1583 1583 1583 1583 1583 1582 1582 1582 1582 1581 1579 1579 1577 1575 1574 1573 1572 1570 1569 1567 1565 1563 1561 1560 1558 1557 1556 1555 1554 1552 1551
1567 1569 1571 1572 1573 1574 1575 1575 1576 1577 1578 1579 1579 1579 1579 1580 1580 1579 1579 1579 1578 1578 1577 1576 1574 1572 1571 1570 1569 1567 1565 1564 1562 1560 1559 1557 1555 1554 1554 1553 1552 1551 1550
1564 1565 1566 1567 1569 1570 1571 1571 1572 1572 1573 1575 1575 1575 1575 1576 1577 1577 1576 1576 1575 1575 1574 1573 1570 1568 1567 1566 1565 1564 1563 1561 1559 1558 1556 1554 1553 1552 1551 1551 1550 1550 1549
1558 1560 1562 1563 1564 1564 1565 1567 1568 1568 1568 1570 1571 1571 1571 1572 1572 1572 1573 1573 1572 1572 1571 1568 1567 1565 1563 1562 1561 1560 1559 1558 1557 1555 1554 1553 1551 1550 1550 1549 1548 1547 1547
1551 1554 1556 1557 1558 1560 1561 1562 1563 1564 1564 1565 1566 1566 1567 1568 1567 1568 1568 1568 1568 1567 1565 1564 1563 1561 1559 1558 1557 1556 1555 1554 1553 1553 1552 1551 1550 1549 1548 1548 1548 1547 1546
1543 1545 1548 1551 1552 1555 1557 1558 1559 1559 1560 1561 1562 1563 1562 1562 1562 1562 1562 1563 1564 1563 1563 1561 1560 1559 1557 1555 1554 1553 1553 1551 1551 1550 1549 1548 1547 1547 1546 1545 1545 1544 1544
1534 1537 1539 1542 1545 1547 1550 1552 1554 1555 1556 1556 1557 1558 1558 1557 1558 1556 1558 1559 1560 1560 1559 1557 1555 1554 1553 1552 1551 1550 1550 1550 1549 1549 1548 1546 1545 1544 1543 1542 1542 1541 1541
1526 1528 1531 1534 1536 1540 1543 1547 1549 1550 1552 1552 1553 1553 1553 1554 1555 1555 1556 1557 1557 1556 1555 1553 1552 1552 1550 1549 1549 1549 1548 1548 1548 1546 1545 1544 1543 1542 1541 1540 1539 1537 1537
1519 1519 1523 1525 1527 1531 1535 1540 1544 1545 1546 1547 1548 1548 1549 1551 1551 1552 1553 1553 1552 1551 1550 1550 1549 1549 1548 1547 1546 1546 1546 1545 1544 1544 1543 1542 1540 1539 1538 1536 1536 1535 1534
1508 1511 1514 1517 1520 1523 1527 1532 1536 1539 1541 1542 1543 1544 1545 1546 1547 1548 1549 1548 1548 1547 1547 1546 1546 1545 1545 1544 1544 1544 1544 1543 1542 1542 1541 1540 1538 1537 1536 1535 1534 1532 1531
1496 1501 1505 1509 1512 1514 1520 1524 1528 1532 1535 1536 1538 1538 1540 1541 1543 1544 1544 1544 1544 1544 1544 1543 1543 1543 1543 1543 1543 1543 1543 1542 1542 1541 1540 1539 1537 1535 1533 1532 1531 1529 1527
1487 1491 1495 1500 1503 1507 1512 1516 1520 1524 1528 1531 1532 1534 1536 1537 1538 1539 1540 1541 1541 1543 1543 1541 1541 1541 1542 1542 1543 1543 1542 1541 1541 1540 1540 1539 1536 1534 1532 1530 1529 1526 1524
Wind_Speed
14 11 9 8 7 9 8 5 4 4 4 4 3 2 3 4 6 7 7 6 5 2 1 0 2 4 8 9 9 11 11 12 10 10 9 8 6 7 7 10 8 7 7
12 9 6 6 6 7 5 4 3 2 2 0 1 3 5 6 6 6 5 4 2 1 3 5 6 8 9 10 9 9 13 13 10 12 9 8 6 7 8 10 7 5 5
11 8 6 5 5 5 4 2 3 4 3 2 2 5 6 4 3 2 2 0 3 5 7 9 11 12 11 10 7 8 11 12 11 10 9 7 6 6 8 8 6 5 4
10 7 6 3 4 3 1 2 4 5 3 0 3 5 4 5 4 4 4 4 6 9 11 13 14 15 14 13 13 18 13 11 6 7 8 6 5 6 7 5 4 5 5
11 7 7 3 3 0 2 3 4 5 2 1 1 1 2 2 4 6 6 7 9 11 12 14 16 18 16 10 11 11 5 5 4 6 8 6 5 6 5 2 3 3 4
9 7 8 5 3 3 4 4 4 4 3 4 5 6 6 6 8 9 10 11 12 13 13 15 15 16 11 5 8 5 3 2 6 7 9 7 5 6 4 2 2 4 4
7 6 10 7 6 6 6 6 6 5 5 4 6 9 10 11 13 13 13 14 13 13 15 11 11 12 10 6 4 2 1 4 7 10 10 7 5 5 3 3 4 5 5
12 11 10 8 8 8 7 8 7 8 8 6 8 9 7 9 10 10 11 9 6 10 9 6 9 9 8 4 3 1 3 5 7 12 10 8 5 4 5 5 6 8 9
10 11 11 10 8 10 9 9 9 7 9 10 10 8 6 5 12 6 5 5 7 9 10 9 9 10 5 4 3 2 5 7 9 10 11 12 7 5 6 8 10 11 12
9 9 11 11 9 8 8 9 10 10 9 9 9 11 10 9 5 7 8 6 8 9 9 11 10 10 6 6 4 4 6 8 10 10 11 12 8 7 8 10 11 12 11
13 11 12 12 9 8 8 8 6 6 8 8 8 8 8 8 7 6 8 8 10 10 11 9 9 10 9 9 9 9 9 9 10 12 12 12 10 9 10 11 12 11 9
16 14 14 14 11 9 7 6 8 5 5 6 7 6 6 5 5 6 9 11 12 11 10 10 9 11 11 10 10 8 9 10 12 13 14 14 13 12 12 13 12 11 10
18 16 15 15 14 9 8 8 9 9 8 8 9 9 9 10 11 11 11 12 11 12 10 10 11 12 10 7 9 8 9 13 14 16 17 16 14 14 13 15 13 12 11
19 16 17 16 15 15 13 13 12 12 12 12 12 11 11 10 11 12 10 10 12 11 12 11 12 9 10 7 9 10 12 14 15 17 18 17 15 13 13 13 12 11 10
19 16 17 17 16 16 15 14 16 14 13 13 13 14 13 11 12 12 12 11 10 15 14 11 10 11 11 11 14 15 16 17 17 18 16 16 15 14 13 10 10 10 10
20 20 18 18 18 18 17 16 13 14 15 15 14 15 15 14 13 14 13 14 15 14 16 14 12 14 14 13 16 16 17 17 15 15 16 16 14 12 11 10 11 10 10
23 21 23 21 21 20 18 17 16 16 17 17 17 17 16 15 14 14 16 15 16 14 15 15 15 15 15 14 14 16 17 17 16 15 14 13 11 10 9 10 10 10 9
24 25 22 23 22 23 22 21 20 18 18 18 18 18 18 18 17 16 17 17 17 16 16 15 16 16 16 15 16 16 16 17 16 15 14 12 10 10 10 11 11 9 9
27 26 28 26 26 25 22 21 21 20 20 20 20 19 18 17 18 15 15 18 16 15 16 15 15 14 16 18 17 17 16 15 15 14 13 13 13 11 11 12 12 11 10
30 30 30 29 29 28 27 24 23 22 21 22 21 18 17 16 15 14 14 15 14 14 12 13 13 13 14 15 16 15 12 12 12 14 14 14 13 12 12 13 13 13 13
29 29 32 33 30 29 26 26 24 23 21 20 20 17 15 13 16 12 11 13 12 13 12 14 18 17 15 12 12 12 10 9 11 11 10 10 10 11 12 13 15 17 17
32 30 30 33 33 31 29 26 25 24 21 19 18 14 13 13 11 10 12 13 14 16 16 15 14 13 13 12 11 11 10 7 6 10 10 10 10 10 12 14 16 17 16
34 29 32 31 34 33 30 27 25 24 22 18 15 14 14 13 12 12 12 13 15 15 14 14 14 13 11 10 8 7 7 7 9 10 10 7 7 9 9 9 11 15 17
40 39 36 33 32 33 32 28 26 25 22 21 18 16 15 15 14 13 11 12 13 13 12 13 13 10 9 7 7 8 5 6 8 9 10 7 10 12 13 13 13 12 13
44 42 33 34 33 36 33 30 28 25 24 23 21 18 17 16 14 12 11 10 9 9 9 9 7 5 7 10 9 6 6 7 8 6 6 8 11 14 14 11 11 14 17
35 39 35 35 34 32 32 31 28 27 26 24 20 17 14 11 10 9 4 2 4 5 5 6 7 5 2 2 3 4 5 7 7 5 8 12 12 14 9 7 15 15 16
Wind_Direction
138 131 124 116 115 162 170 155 117 83 70 66 78 107 85 111 134 136 131 132 137 139 189 246 237 270 292 321 328 337 342 333 318 312 305 307 323 335 341 348 338 323 313
146 141 122 108 111 165 160 138 73 51 3 124 114 112 137 140 133 126 121 111 89 15 336 328 317 307 311 316 323 331 340 334 318 312 302 298 319 342 349 349 345 336 315
159 155 139 114 110 154 145 96 33 5 1 184 193 171 164 157 153 137 143 300 324 319 315 311 308 304 301 300 319 324 325 321 315 317 316 297 307 335 350 348 347 356 357
178 170 164 135 126 120 123 25 14 17 40 266 139 161 187 214 249 261 285 321 334 333 326 320 314 303 301 309 313 310 306 306 314 327 315 300 302 327 350 346 346 359 12
199 196 190 181 173 337 322 336 349 10 0 257 211 223 279 271 279 294 309 313 320 322 321 327 326 319 312 311 316 333 312 295 341 348 326 320 317 326 346 352 339 351 5
199 212 209 220 241 271 291 297 320 343 2 262 279 289 290 285 286 293 301 306 312 313 320 326 323 338 333 309 326 325 316 349 360 346 330 329 329 332 342 342 316 329 339
213 224 221 236 253 267 272 260 297 298 327 341 321 306 295 296 294 294 304 306 310 314 323 323 336 356 356 347 359 309 58 12 355 338 336 333 328 344 350 324 318 309 305
230 236 233 243 263 268 265 253 287 273 287 294 300 309 314 318 319 315 324 320 332 342 341 332 341 1 10 23 27 45 18 355 345 335 342 338 315 325 344 335 310 301 297
236 233 226 235 259 260 268 259 265 284 272 278 288 291 309 312 325 345 11 22 2 5 12 2 345 353 10 3 359 349 345 336 329 340 343 345 322 312 320 327 319 309 300
228 229 224 230 263 261 256 250 259 272 272 271 283 284 284 289 307 312 319 313 347 357 346 349 353 343 332 343 320 304 312 331 333 335 338 346 335 314 314 322 321 318 312
234 232 232 233 253 255 250 235 252 266 267 261 270 286 278 290 299 303 309 323 336 342 343 338 344 349 332 307 321 282 293 320 335 340 333 332 337 328 322 323 324 320 316
231 241 240 237 236 244 242 239 240 250 268 273 286 297 293 290 289 297 304 315 316 323 332 345 345 338 340 318 314 289 300 321 325 333 335 324 322 327 325 322 321 318 311
236 245 239 229 229 238 246 252 250 250 252 274 284 284 284 281 285 294 300 308 310 313 320 319 323 329 330 324 324 311 311 323 320 324 327 328 316 316 322 326 319 316 310
245 251 235 228 232 238 245 255 260 253 256 265 269 275 282 285 286 286 288 301 308 312 319 322 336 332 323 304 324 318 312 316 314 316 313 316 313 308 313 321 322 320 314
244 245 236 234 236 241 244 254 254 257 257 264 271 274 276 274 278 283 285 290 292 306 312 313 331 323 318 302 307 311 308 313 314 315 313 310 311 308 310 309 317 319 320
244 242 239 239 242 248 243 246 250 250 257 265 270 273 274 277 280 278 277 285 288 289 293 304 307 313 312 307 301 305 309 314 317 317 316 311 302 300 297 303 311 314 315
247 246 244 244 246 246 244 247 250 259 261 265 272 278 277 277 273 274 278 280 290 288 291 300 301 315 315 315 311 312 311 314 316 318 319 318 312 303 289 297 304 308 307
245 247 247 247 250 251 250 250 255 261 261 266 275 278 274 273 275 278 280 282 285 288 289 291 301 311 312 312 312 312 311 313 315 315 315 315 316 305 295 294 292 290 290
247 247 246 248 251 250 250 252 259 260 259 268 276 273 276 275 278 279 286 289 288 289 294 292 298 300 305 307 309 308 308 308 308 313 316 310 310 306 301 294 289 291 291
246 246 246 250 252 253 255 256 255 259 265 270 273 273 272 263 262 271 286 287 287 290 289 296 298 299 298 301 303 305 313 312 310 310 309 307 306 306 299 291 286 284 281
245 245 245 246 252 253 253 255 254 260 266 270 273 272 265 261 267 265 274 277 285 290 295 298 304 302 301 303 302 296 304 307 313 314 319 320 316 309 297 296 291 287 280
247 240 246 245 248 250 252 253 255 263 269 270 266 264 257 259 261 260 268 279 285 294 299 299 302 305 307 305 305 304 305 315 316 302 315 317 321 320 310 301 295 290 286
253 248 248 246 246 244 247 246 253 259 268 268 260 254 251 249 252 264 278 284 291 297 298 297 298 295 291 291 286 285 293 300 302 305 311 346 340 348 350 345 333 319 315
254 261 257 243 247 244 240 241 247 257 261 256 251 248 250 249 251 261 271 283 292 292 292 293 286 285 289 291 301 307 322 340 326 313 314 310 329 342 337 321 319 327 328
256 252 251 248 244 247 239 238 247 246 250 248 247 247 252 251 258 274 286 286 286 288 287 298 302 328 58 63 50 57 44 36 4 353 3 353 341 332 331 336 336 328 326
246 243 250 246 239 243 238 238 241 237 240 239 241 251 251 256 272 280 267 177 105 87 60 65 83 82 36 29 347 333 340 346 353 352 349 354 354 351 344 331 333 336 330